Wind_Speed
14 16 15 17 21 22 23 23 20 23 25 25 24 22 17 14 12 14 14 12 7 11 9 4 5 6 8 7 7 6 6 5 2 2 3 3 3 3 4 5 7 8 9 9 10 10 11 13 13
11 12 13 14 18 24 28 25 23 23 25 26 27 26 21 18 16 15 13 13 12 12 11 10 9 9 10 11 10 8 8 8 7 6 4 6 7 8 7 7 8 9 9 9 9 9 11 12 13
11 12 13 14 18 24 27 27 24 26 26 28 25 26 24 20 18 16 15 17 14 16 18 15 15 14 14 15 13 12 13 13 11 11 9 9 10 10 10 10 9 10 9 9 10 9 10 11 12
13 14 14 16 19 23 26 25 23 24 27 29 28 27 26 24 21 20 18 17 20 18 21 21 20 18 16 16 15 16 17 17 17 17 15 14 13 12 12 13 11 12 12 11 11 10 10 11 11
13 14 15 17 21 24 26 26 24 22 24 27 29 28 28 27 25 25 23 22 23 25 24 23 22 22 20 19 20 18 17 18 21 21 19 18 16 16 15 15 15 13 14 14 13 12 11 11 11
16 16 16 19 23 25 26 27 25 23 23 25 27 28 28 27 26 25 25 25 25 26 28 28 26 25 25 23 22 21 21 20 21 23 23 22 21 20 18 17 18 15 16 15 14 14 13 12 12
18 19 20 23 26 27 26 26 27 26 26 26 26 26 24 25 24 24 26 29 29 27 28 27 27 26 26 26 25 24 23 24 23 24 24 25 25 23 21 20 20 18 18 18 17 15 16 15 14
17 19 20 23 27 29 28 28 28 29 28 28 28 27 26 26 27 28 29 29 30 31 30 28 27 28 28 28 27 28 27 26 27 26 27 28 27 26 24 22 22 21 21 20 20 18 18 18 18
20 21 23 24 26 26 27 26 27 29 30 30 30 30 29 27 26 28 28 30 32 31 31 31 31 32 32 32 31 31 31 31 28 28 28 28 29 29 28 27 25 24 23 23 23 22 21 20 20
23 26 26 26 26 26 26 27 29 29 29 30 31 32 30 30 30 30 30 30 30 30 30 31 32 34 34 35 37 36 34 34 33 31 30 30 31 31 31 32 30 27 25 26 25 25 24 23 22
22 26 28 29 30 30 29 31 31 31 34 33 33 34 33 33 33 33 33 33 33 33 33 32 34 34 35 36 35 40 39 38 37 37 36 34 34 33 32 34 34 33 31 30 29 28 27 25 24
19 22 26 29 32 34 35 35 36 38 36 36 35 37 37 36 36 37 37 37 37 38 37 37 38 37 38 39 40 38 41 43 43 41 42 41 39 39 37 36 36 37 37 35 34 32 29 27 25
16 19 22 24 26 28 30 34 37 38 38 38 39 40 40 41 41 41 41 42 43 43 43 43 43 43 41 41 42 44 45 43 44 47 46 45 44 44 43 41 40 39 40 38 39 38 36 33 29
18 20 22 24 24 25 27 29 31 34 37 39 39 40 42 44 45 46 46 46 47 48 48 48 47 45 46 46 44 44 46 48 46 45 48 51 49 48 48 46 44 44 42 41 41 41 39 36 33
22 24 27 27 28 29 30 33 34 36 38 39 40 40 41 44 46 48 48 48 49 50 50 50 48 46 46 44 44 45 44 45 47 48 49 51 54 53 53 52 49 47 47 44 43 43 43 41 38
28 31 33 34 35 35 35 37 36 38 39 41 44 46 47 48 49 51 51 49 47 45 45 46 44 46 47 46 45 45 45 46 47 49 51 48 52 56 57 55 54 50 51 50 48 46 43 41 41
32 34 35 38 39 40 38 38 38 39 41 42 43 43 44 46 46 45 46 46 45 45 46 47 46 49 49 50 50 49 47 45 45 45 48 50 47 52 57 60 57 57 53 50 53 49 47 41 38
34 35 35 37 39 40 41 41 42 41 40 41 41 41 42 43 43 42 44 45 46 47 46 48 49 50 53 53 52 52 51 46 43 41 39 41 46 43 50 58 62 59 60 57 49 55 50 47 39
35 36 33 33 36 36 37 37 37 37 37 36 35 35 37 39 40 41 43 45 45 46 46 47 50 52 53 53 53 52 50 48 44 42 41 39 38 40 41 47 58 63 61 61 58 53 55 48 45
27 25 26 26 28 29 30 28 29 30 31 31 31 32 33 36 39 40 41 43 44 45 46 47 49 52 54 54 53 51 50 48 48 44 44 45 42 43 42 42 43 55 63 62 61 56 49 53 46
20 20 20 20 22 25 26 23 24 24 25 28 30 31 33 35 37 39 41 43 45 46 46 47 47 50 51 51 51 51 52 52 53 49 45 46 47 46 42 43 46 46 57 61 61 60 57 48 54
19 19 21 23 23 22 23 23 22 24 26 26 28 30 32 34 36 36 36 38 41 43 45 44 44 47 46 48 53 56 54 55 53 51 48 44 47 48 46 45 46 51 52 59 59 62 61 57 57
20 19 20 22 22 22 22 22 21 22 22 25 28 30 30 30 30 29 29 31 33 33 36 40 40 43 46 49 50 51 53 54 52 50 47 47 46 48 49 46 43 48 51 54 62 63 63 50 53
18 18 20 19 19 19 20 21 21 23 24 25 26 27 28 29 30 32 32 32 33 36 35 35 36 39 42 44 50 52 51 51 51 49 50 49 52 55 51 49 47 44 50 45 62 61 60 63 58
18 19 21 20 18 18 14 16 21 23 21 22 24 25 29 33 35 33 32 33 36 37 39 35 35 40 44 46 48 49 49 49 49 51 52 53 52 56 55 54 52 49 48 52 45 65 58 57 56
19 22 22 21 16 14 15 20 22 23 21 22 25 28 34 37 37 33 34 33 34 36 38 39 43 46 48 50 49 53 55 55 55 54 54 56 56 56 59 60 58 52 50 51 50 51 67 62 49
22 22 23 22 17 13 13 17 23 21 21 25 27 30 32 32 32 33 35 38 38 39 40 41 43 39 42 45 47 49 53 54 56 60 61 59 59 58 58 62 61 56 54 51 52 42 60 68 59
22 23 22 21 19 15 12 17 20 20 22 23 25 26 28 28 27 30 36 39 41 42 42 42 43 41 41 44 46 48 52 54 58 58 58 56 55 53 56 62 63 60 56 51 50 48 49 65 60
23 22 22 19 19 19 17 18 19 20 21 24 27 28 29 28 30 33 33 32 38 40 42 42 42 43 41 41 42 46 48 54 59 60 58 55 53 55 53 59 65 63 57 51 50 51 41 61 65
24 24 21 20 20 19 20 17 19 21 25 28 34 33 31 32 32 32 33 30 31 35 40 43 45 42 41 39 41 42 44 49 51 47 48 51 50 48 49 57 67 67 58 50 47 52 45 51 65
Wind_Direction
220 225 228 227 222 220 223 229 229 225 231 241 240 241 248 241 235 215 214 224 233 190 197 203 236 250 240 247 249 241 264 242 244 215 219 265 253 251 253 267 281 291 298 306 314 327 333 334 327
217 221 221 221 219 226 232 228 232 235 234 238 244 249 251 251 259 253 258 254 247 220 216 238 250 254 259 247 243 247 245 252 258 244 241 251 257 254 257 255 269 276 285 294 304 316 326 328 323
216 222 224 222 220 229 238 235 233 238 239 241 250 258 260 262 265 269 284 283 265 226 229 256 262 257 256 255 250 247 244 247 244 252 245 250 249 253 255 259 259 272 278 286 293 303 315 319 319
228 226 225 227 227 233 240 244 238 237 242 245 246 252 260 264 265 272 284 284 286 274 257 264 259 254 253 251 249 249 247 246 246 246 248 246 252 252 254 254 258 263 270 272 279 291 303 308 314
232 231 231 235 236 237 244 248 249 240 246 247 248 250 257 261 269 274 280 279 280 274 264 262 259 257 255 251 249 245 249 245 245 244 244 244 247 251 250 251 252 257 268 272 276 282 289 297 302
235 237 234 239 242 241 243 251 255 254 247 248 249 252 257 261 264 264 263 268 268 262 263 254 260 252 254 252 249 251 246 248 247 245 242 240 243 246 250 251 253 255 262 267 273 277 280 286 291
237 237 236 240 244 246 247 250 255 259 259 256 255 255 257 258 261 261 264 266 261 254 256 254 256 257 255 255 253 248 249 249 248 249 246 241 243 244 247 250 251 249 256 264 267 270 276 278 283
243 243 242 242 246 249 250 254 257 260 261 262 261 258 255 253 251 254 256 253 248 251 253 255 256 258 259 257 256 254 248 249 249 247 249 249 248 245 240 243 251 253 253 258 264 265 268 275 278
245 242 242 242 247 253 256 256 255 257 260 261 260 260 259 256 254 252 247 240 242 248 252 253 251 253 256 257 256 254 255 249 246 247 249 252 251 249 245 241 242 249 253 257 260 263 265 267 273
243 243 245 246 249 252 256 258 258 255 256 258 259 258 257 257 253 248 249 251 251 250 250 252 252 251 251 255 260 259 258 258 254 247 246 246 248 251 249 251 245 245 249 253 255 259 261 265 269
251 249 247 246 246 247 248 251 255 258 256 255 260 262 262 259 259 256 254 256 257 257 259 260 263 263 259 253 253 259 259 257 257 257 247 241 242 245 250 252 252 245 243 248 252 256 259 262 265
265 261 257 255 253 252 253 254 252 253 255 259 259 262 264 263 261 260 259 257 258 259 260 265 266 268 267 264 260 260 263 257 255 253 254 249 241 237 244 248 248 251 249 246 249 252 255 257 261
264 263 262 263 262 261 260 259 260 262 262 261 263 265 267 267 266 264 263 264 265 267 268 269 271 272 271 269 265 262 260 264 261 258 255 253 246 241 235 243 249 244 252 255 255 254 252 254 258
270 268 266 265 264 264 264 263 263 263 264 263 262 263 263 265 267 268 268 269 271 273 274 273 273 272 270 269 268 267 266 266 268 264 260 257 254 246 242 237 243 250 252 251 257 262 259 254 254
275 276 273 273 274 272 269 268 266 264 265 267 267 266 265 266 268 268 269 272 275 276 277 276 275 272 269 266 266 267 265 264 266 267 265 260 254 252 248 244 238 244 250 255 257 258 262 260 256
278 276 277 276 276 275 275 276 274 271 270 269 269 271 271 271 271 273 274 275 274 272 270 270 271 270 272 272 268 264 264 265 264 264 265 263 259 253 252 249 243 236 249 250 254 256 258 263 267
279 280 279 279 278 279 278 277 277 276 276 275 274 274 273 274 275 277 277 275 273 271 271 271 270 269 269 269 270 270 267 264 263 262 260 261 261 255 253 250 249 244 236 251 251 255 257 261 260
286 285 286 286 285 284 283 282 282 281 280 279 278 277 277 277 276 275 274 274 274 273 271 270 270 265 266 267 266 267 268 267 267 263 262 260 259 260 255 250 247 247 245 240 250 252 252 257 259
289 289 289 288 286 284 285 285 285 285 284 283 281 277 275 274 272 270 269 269 268 267 268 266 266 266 264 262 262 263 266 267 267 267 266 261 259 258 258 256 248 244 246 246 244 250 250 251 257
295 297 297 295 292 291 287 286 282 281 279 278 276 274 271 270 271 271 269 268 268 267 265 262 261 261 263 260 259 260 261 265 267 266 268 267 263 261 254 253 254 247 243 246 245 244 255 250 253
310 311 309 300 296 294 293 291 290 287 285 283 281 279 276 274 274 275 276 275 272 270 268 266 263 259 259 260 259 257 257 262 266 269 269 263 262 257 251 256 256 250 242 240 244 245 242 250 246
315 314 309 305 304 298 296 295 294 291 291 291 290 288 286 284 282 278 274 273 273 274 273 270 265 262 255 256 257 258 259 257 258 262 265 256 256 257 258 258 256 254 249 240 238 241 245 247 244
316 316 309 307 306 303 298 297 292 292 292 292 290 292 292 293 290 283 279 276 276 275 272 270 270 267 261 256 255 257 258 258 258 253 254 254 254 256 259 259 256 254 252 244 236 238 239 243 236
322 319 314 312 305 297 294 296 296 297 298 300 301 302 301 298 292 287 284 279 273 272 271 267 263 262 262 262 259 256 257 256 253 254 250 248 251 255 257 258 253 253 253 253 237 238 237 241 244
326 326 329 325 314 305 301 302 300 297 297 296 301 300 302 300 297 288 288 285 284 282 279 273 270 271 268 262 259 257 255 255 254 253 254 252 247 247 252 255 255 251 249 247 247 237 234 234 246
328 328 329 326 316 311 297 304 303 296 292 295 300 302 303 298 293 288 281 283 283 282 281 280 278 278 273 271 266 260 260 259 258 258 259 260 253 248 246 245 248 247 246 247 247 243 236 236 240
328 327 330 326 312 306 304 303 292 297 294 300 301 304 310 309 299 292 292 287 281 279 282 282 282 281 276 272 270 267 266 263 262 263 263 261 258 254 246 242 243 245 241 243 247 249 237 235 235
320 322 327 326 319 304 299 312 309 292 288 297 302 308 309 314 310 302 293 285 283 281 284 287 291 282 277 273 268 267 266 261 261 261 257 257 252 249 245 238 237 241 244 241 242 244 241 231 230
321 322 321 323 320 310 301 305 303 307 304 310 316 317 318 323 324 321 319 299 282 281 283 290 297 293 287 283 275 271 266 261 261 262 260 260 260 252 250 238 235 238 240 239 241 242 248 231 228
324 323 322 322 319 314 312 310 308 309 315 317 323 323 321 321 321 325 329 319 297 287 286 296 300 303 297 287 279 276 274 268 269 268 267 260 263 258 247 238 230 235 234 232 237 241 245 237 230
Height
5881 5883 5884 5886 5889 5886 5886 5889 5891 5891 5892 5893 5894 5896 5900 5902 5903 5907 5906 5906 5906 5907 5908 5908 5909 5910 5911 5912 5912 5911 5910 5911 5910 5909 5910 5912 5912 5913 5913 5913 5914 5915 5915 5915 5914 5913 5913 5912 5912
5880 5881 5882 5883 5884 5882 5883 5886 5889 5890 5891 5892 5893 5895 5898 5901 5902 5904 5905 5906 5906 5905 5906 5906 5907 5908 5908 5909 5909 5909 5909 5909 5909 5909 5909 5910 5911 5912 5912 5911 5912 5913 5913 5913 5913 5912 5911 5910 5909
5878 5879 5880 5880 5881 5880 5880 5883 5887 5888 5889 5890 5893 5894 5895 5898 5900 5901 5902 5902 5903 5903 5902 5902 5903 5905 5905 5905 5905 5906 5907 5908 5907 5907 5907 5907 5908 5909 5909 5910 5909 5910 5910 5910 5911 5910 5910 5909 5908
5876 5877 5878 5878 5879 5878 5878 5880 5884 5886 5887 5888 5889 5891 5892 5893 5895 5897 5898 5898 5898 5899 5899 5899 5899 5900 5901 5902 5902 5903 5904 5904 5905 5905 5904 5904 5905 5906 5906 5907 5907 5908 5907 5908 5908 5908 5908 5907 5906
5873 5874 5875 5875 5876 5876 5876 5877 5880 5884 5885 5885 5887 5888 5889 5890 5892 5893 5894 5894 5894 5894 5894 5895 5895 5896 5897 5898 5899 5899 5900 5900 5901 5902 5901 5901 5902 5902 5903 5904 5904 5904 5905 5906 5906 5906 5906 5905 5904
5871 5872 5873 5872 5872 5872 5873 5874 5876 5880 5881 5882 5883 5885 5886 5887 5888 5889 5889 5889 5889 5889 5889 5890 5890 5891 5892 5892 5894 5895 5895 5896 5897 5897 5897 5897 5898 5899 5899 5899 5901 5901 5901 5902 5903 5903 5903 5902 5901
5867 5868 5869 5868 5867 5868 5870 5871 5872 5874 5876 5877 5879 5881 5883 5884 5883 5884 5884 5884 5884 5883 5884 5884 5885 5885 5886 5887 5888 5890 5891 5892 5892 5893 5893 5892 5893 5894 5894 5895 5896 5896 5897 5898 5898 5900 5900 5899 5898
5863 5864 5864 5863 5863 5864 5867 5869 5869 5869 5871 5872 5873 5874 5877 5878 5878 5878 5879 5879 5879 5878 5878 5879 5880 5880 5880 5881 5882 5883 5885 5886 5887 5888 5888 5888 5888 5888 5889 5890 5891 5892 5892 5892 5893 5895 5896 5896 5895
5859 5860 5860 5860 5860 5861 5862 5864 5865 5864 5865 5866 5867 5868 5869 5871 5872 5872 5873 5873 5873 5873 5873 5873 5874 5874 5874 5874 5875 5876 5877 5879 5880 5881 5883 5884 5883 5883 5883 5883 5884 5885 5887 5887 5887 5889 5891 5891 5891
5855 5855 5855 5857 5857 5858 5858 5858 5858 5859 5859 5860 5860 5859 5861 5862 5863 5864 5865 5866 5868 5869 5869 5869 5869 5869 5870 5871 5870 5871 5873 5874 5875 5875 5876 5877 5878 5878 5878 5878 5878 5879 5880 5881 5881 5882 5884 5886 5886
5850 5851 5851 5852 5852 5852 5852 5852 5852 5853 5852 5853 5854 5854 5856 5856 5856 5857 5858 5859 5860 5860 5861 5863 5864 5864 5863 5864 5864 5863 5865 5866 5867 5867 5868 5869 5871 5872 5873 5873 5873 5872 5873 5874 5874 5875 5877 5880 5881
5846 5846 5846 5846 5847 5847 5847 5848 5846 5845 5848 5848 5849 5848 5847 5848 5849 5848 5849 5850 5851 5852 5853 5854 5855 5855 5856 5857 5857 5857 5855 5856 5857 5858 5859 5860 5861 5863 5865 5865 5866 5867 5867 5867 5867 5868 5870 5872 5874
5842 5842 5842 5842 5842 5842 5843 5842 5841 5841 5842 5842 5841 5840 5840 5839 5840 5840 5841 5841 5840 5842 5843 5844 5845 5846 5847 5847 5846 5846 5847 5847 5849 5850 5851 5852 5853 5853 5855 5857 5858 5860 5860 5861 5860 5861 5863 5865 5868
5839 5838 5837 5837 5837 5837 5836 5836 5835 5835 5833 5833 5833 5832 5831 5830 5830 5830 5831 5831 5832 5832 5832 5833 5834 5836 5835 5835 5837 5838 5839 5838 5838 5840 5841 5843 5845 5845 5846 5847 5849 5852 5853 5853 5854 5855 5856 5858 5860
5834 5833 5831 5831 5830 5830 5830 5829 5828 5827 5826 5824 5824 5824 5823 5822 5821 5821 5822 5822 5822 5822 5821 5821 5822 5822 5822 5824 5825 5826 5828 5830 5830 5829 5830 5831 5834 5837 5837 5839 5840 5843 5844 5845 5846 5849 5850 5852 5853
5829 5828 5825 5824 5823 5823 5823 5820 5820 5819 5819 5817 5816 5814 5813 5813 5813 5811 5811 5812 5812 5811 5810 5809 5810 5809 5809 5810 5813 5816 5817 5818 5819 5820 5819 5820 5822 5825 5827 5830 5831 5834 5835 5836 5839 5841 5844 5846 5847
5822 5820 5819 5816 5815 5815 5815 5812 5810 5809 5808 5806 5805 5805 5803 5802 5802 5801 5799 5799 5800 5799 5798 5798 5799 5797 5797 5798 5799 5801 5804 5806 5808 5808 5809 5808 5809 5811 5814 5819 5822 5823 5825 5826 5830 5833 5836 5839 5840
5815 5813 5811 5808 5807 5804 5803 5802 5800 5800 5799 5798 5796 5795 5793 5792 5791 5790 5789 5788 5787 5787 5787 5786 5786 5786 5785 5786 5787 5789 5790 5792 5794 5796 5797 5797 5798 5799 5801 5804 5808 5812 5814 5817 5820 5824 5826 5830 5832
5806 5805 5804 5801 5798 5797 5794 5793 5791 5790 5788 5786 5785 5784 5783 5782 5780 5780 5778 5777 5777 5776 5776 5775 5774 5773 5774 5774 5775 5777 5778 5779 5782 5784 5784 5787 5788 5788 5790 5790 5793 5798 5802 5805 5809 5813 5815 5821 5823
5798 5797 5796 5794 5791 5789 5787 5787 5784 5782 5780 5778 5776 5775 5774 5772 5770 5769 5768 5766 5764 5764 5763 5763 5762 5761 5760 5761 5763 5765 5767 5769 5769 5772 5774 5774 5776 5776 5778 5779 5780 5784 5788 5793 5798 5802 5805 5810 5814
5793 5792 5790 5789 5786 5782 5780 5780 5777 5775 5773 5770 5768 5766 5764 5763 5762 5760 5758 5756 5754 5752 5752 5751 5751 5750 5749 5750 5751 5752 5756 5758 5758 5760 5762 5762 5762 5764 5766 5769 5769 5771 5773 5778 5785 5790 5794 5799 5801
5789 5787 5785 5781 5780 5778 5775 5774 5772 5768 5766 5764 5761 5757 5755 5752 5750 5749 5748 5745 5742 5740 5739 5739 5739 5737 5737 5737 5739 5739 5742 5745 5747 5746 5748 5750 5750 5752 5754 5756 5758 5759 5761 5765 5770 5775 5781 5785 5788
5786 5783 5780 5777 5774 5772 5770 5768 5765 5763 5760 5757 5754 5751 5748 5745 5742 5740 5738 5735 5733 5731 5728 5727 5726 5726 5725 5726 5726 5726 5727 5729 5731 5734 5735 5737 5739 5740 5742 5744 5746 5747 5750 5753 5757 5761 5767 5767 5776
5782 5779 5776 5773 5770 5767 5765 5763 5760 5757 5754 5751 5747 5744 5741 5739 5735 5732 5729 5727 5724 5721 5719 5718 5716 5714 5713 5712 5711 5712 5713 5714 5717 5719 5722 5724 5725 5727 5729 5731 5734 5736 5738 5741 5746 5749 5754 5758 5767
5778 5775 5772 5769 5765 5763 5760 5758 5754 5751 5749 5746 5742 5739 5736 5731 5727 5725 5722 5719 5716 5712 5709 5707 5705 5703 5700 5699 5698 5697 5698 5699 5701 5703 5705 5708 5711 5714 5716 5717 5721 5725 5727 5729 5732 5736 5741 5750 5755
5774 5771 5768 5764 5762 5759 5756 5753 5749 5745 5743 5740 5738 5734 5730 5725 5720 5716 5713 5710 5707 5704 5700 5697 5694 5691 5687 5684 5683 5682 5682 5682 5684 5685 5688 5691 5694 5697 5699 5701 5705 5710 5714 5718 5721 5725 5730 5737 5747
5770 5768 5765 5760 5758 5756 5754 5750 5744 5741 5739 5736 5733 5729 5723 5716 5712 5709 5705 5701 5697 5694 5691 5687 5683 5679 5675 5672 5669 5668 5667 5667 5669 5669 5670 5672 5674 5679 5684 5687 5691 5695 5700 5705 5711 5716 5718 5725 5734
5767 5764 5760 5757 5754 5751 5750 5745 5740 5737 5735 5733 5728 5724 5718 5712 5706 5701 5696 5691 5687 5683 5680 5677 5672 5667 5664 5659 5655 5654 5652 5650 5649 5649 5651 5651 5655 5660 5665 5672 5676 5680 5688 5694 5699 5705 5708 5715 5725
5762 5759 5756 5753 5750 5746 5744 5741 5736 5733 5730 5726 5723 5718 5712 5706 5700 5694 5688 5681 5677 5674 5670 5666 5661 5656 5651 5646 5642 5638 5635 5632 5630 5629 5630 5632 5636 5642 5649 5656 5661 5665 5673 5685 5690 5696 5700 5706 5713
5757 5754 5751 5748 5745 5741 5738 5736 5731 5727 5724 5720 5715 5710 5705 5700 5694 5688 5681 5675 5669 5665 5661 5656 5650 5643 5636 5631 5626 5623 5619 5613 5611 5612 5612 5613 5616 5620 5628 5636 5644 5651 5661 5673 5682 5685 5689 5694 5703